Regional Weather Roundup
Issued by NWS

Current Version | Previous Version | Text Only | Print | Product List | Glossary On
Versions: 1 2 3 4 5 6 7 8 9 10 11 12 13 14 15 16 17 18 19 20 21 22 23 24 25 26 27 28 29 30 31 32 33 34 35 36 37 38 39 40 41 42 43 44 45 46 47 48 49 50
000
ASUS44 KLIX 021611
RWRLA
LOUISIANA WEATHER ROUNDUP
NATIONAL WEATHER SERVICE NEW ORLEANS LA
1100 AM CDT WED SEP 02 2015

NOTE: "FAIR" INDICATES FEW OR NO CLOUDS BELOW 12,000 FEET WITH NO
      SIGNIFICANT WEATHER AND/OR OBSTRUCTIONS TO VISIBILITY.
      SKY/WX - SKY CONDITION AND SIGNIFICANT WEATHER.
      TMP - AIR TEMPERATURE.    DP   - DEWPOINT TEMPERATURE.
      RH  - RELATIVE HUMIDITY.  PRES - PRESSURE.
      HX  - HEAT INDEX.         WCI  - WIND CHILL INDEX.

*  THESE STATIONS ARE NOT NWS OR FAA STATIONS AND ARE NOT UNDER
   NWS QUALITY CONTROL.

LAZ040-048-061>063-065-066-069-021700-
SOUTHEAST LOUISIANA

CITY           SKY/WX    TMP DP  RH WIND       PRES   REMARKS
N.O. AUDUBON     N/A     87  74  66 MISG        N/A  HX  96
N.O. INTL ARPT CLOUDY    85  74  69 VRB6      30.08R
N.O. LAKEFRONT PTSUNNY   84  75  74 NE8       30.08R
N.O. DOWNTOWN* FAIR      86  72  62 NE3       30.09R
RESERVE*       FAIR      88  74  63 NE3       30.08R HX  97
SLIDELL        PTSUNNY   89  76  65 VRB3      30.08R HX 100
BATON ROUGE    PTSUNNY   84  72  67 CALM      30.07S
BOOTHVILLE     LGT RAIN  84  75  74 E6        30.09R
BELLE CHASSE   CLOUDY    84  73  69 SE5       30.08R
BOGALUSA*      NOT AVBL
GALLIANO*      TSTM      73  72  96 CALM      30.10R VSB 1/2
NEW ROADS*     PTSUNNY   81  74  78 NE5       30.07S
GONZALES*      FAIR      86  73  65 E3        30.06S
HAMMOND*       CLOUDY    88  68  51 NE3       30.09S
HOUMA*         NOT AVBL
PORT FOURCHON* SUNNY     81  73  78 E8        30.09S

$$

LAZ041-044-053-054-021700-
SOUTHWEST LOUISIANA

CITY           SKY/WX    TMP DP  RH WIND       PRES   REMARKS
LAKE CHARLES   SUNNY     86  72  62 E8        30.05S
LAFAYETTE      CLOUDY    84  73  69 NE5       30.07R
PATTERSON      PTSUNNY   82  73  74 E8        30.09R
SALT POINT       N/A     82  75  79 VRB3      30.05R
NEW IBERIA     MOSUNNY   87  73  62 NE9       30.07R
CHENAULT AIRPK MOSUNNY   84  73  70 NE10      30.05F

$$

LAZ027-028-021700-
CENTRAL LOUISIANA

CITY           SKY/WX    TMP DP  RH WIND       PRES   REMARKS
FORT POLK      MOSUNNY   83  70  63 NE3       30.06S
ALEXANDRIA INT MOSUNNY   86  71  60 N3        30.06S
ALEXANDRIA     PTSUNNY   87  72  60 VRB5      30.07S

$$

LAZ001-002-021700-
NORTHWEST LOUISIANA

CITY           SKY/WX    TMP DP  RH WIND       PRES   REMARKS
SHREVEPORT     CLOUDY    82  70  66 CALM      30.08F
BARKSDALE AFB  PTSUNNY   81  71  73 N5        30.08S
DTN SHREVEPORT PTSUNNY   80  71  74 N3        30.09S

$$

LAZ014-016-021700-
NORTHEAST LOUISIANA

CITY           SKY/WX    TMP DP  RH WIND       PRES   REMARKS
MONROE         MOSUNNY   88  69  53 CALM      30.08F
TALLULAH       CLOUDY    84  69  60 CALM      30.08S

$$



USA.gov is the U.S. government's official web portal to all federal, state and local government web resources and services.